Flag for Germany Weather past 2 weeks in Darmstadt, Hesse, Germany

Now
50 °F

Broken clouds.


Feels Like: 45 °F
Forecast: 38 / 46 °F
Wind: 15 mph from Southwest

Location: Frankfurt-M-Flughafen Airport

Current Time: Mar 1, 2015 at 2:28:55 PM

Latest Report: Mar 1, 2015 at 1:50 PM


Visibility: N/A

Pressure: 29.71 "Hg

Humidity: 82%

Dew point: 45 °F

Location of DarmstadtLocation

Historic Weather in Darmstadt — Graph

°F

Darmstadt temperature yesterday

Maximum temperature yesterday: 45 °F (at 1:20 PM)
Minimum temperature yesterday: 28 °F (at 6:50 AM)
Average temperature yesterday: 38 °F

Past Weeks' High & Low Weather Summary

 TemperatureHumidityPressure
High52 °F (Feb 20, 1:50 PM)100% (Feb 22, 2:50 AM)30.74 "Hg (Feb 22, 2:50 AM)
Low25 °F (Feb 15, 4:50 AM)50% (Feb 20, 4:50 PM)29.45 "Hg (Feb 21, 7:20 AM)
Average38 °F80%30.02 "Hg
* Reported Feb 14 1:20 PM — Mar 1 1:20 PM, Darmstadt, Weather by CustomWeather, © 2015

Note: Actual official high and low records may vary slightly from our data, if they occured in-between our weather recording intervals... More about our weather records

Advertising

Darmstadt weather history for previous 24 hours

 ConditionsComfort  
Time TempWeatherWind HumidityBarometerVisibility
1:20 PM
Sun, Mar 1
48 °FBroken clouds.14 mph87%29.71 "HgN/A
12:50 PM46 °FPartly sunny.14 mph87%29.71 "HgN/A
12:20 PM45 °FBroken clouds.14 mph93%29.71 "HgN/A
11:50 AM43 °FDrizzle. Broken clouds.13 mph93%29.74 "Hg5 mi
11:20 AM41 °FDrizzle. Broken clouds.12 mph93%29.74 "HgN/A
10:50 AM41 °FDrizzle. Broken clouds.9 mph93%29.74 "HgN/A
10:20 AM39 °FDrizzle. Broken clouds.9 mph93%29.74 "Hg5 mi
9:50 AM39 °FLight rain. Broken clouds.10 mph93%29.71 "HgN/A
9:20 AM39 °FPartly sunny.8 mph93%29.74 "HgN/A
8:50 AM39 °FBroken clouds.6 mph93%29.74 "HgN/A
8:20 AM37 °FLight rain. More clouds than sun.10 mph93%29.74 "HgN/A
7:50 AM37 °FLight rain. Low clouds.12 mph93%29.74 "Hg5 mi
7:20 AM37 °FLight rain. More clouds than sun.13 mph93%29.74 "Hg5 mi
6:50 AM37 °FRain. Low clouds.10 mph93%29.74 "Hg4 mi
6:20 AM37 °FLight rain. Overcast.10 mph87%29.77 "Hg6 mi
5:50 AM36 °FRain. Passing clouds.9 mph93%29.77 "Hg6 mi
5:20 AM37 °FLight rain. Partly cloudy.9 mph87%29.77 "HgN/A
4:20 AM39 °FLight rain. Partly cloudy.14 mph75%29.80 "HgN/A
3:50 AM39 °FPassing clouds.14 mph75%29.80 "HgN/A
3:20 AM39 °FClear.13 mph75%29.83 "Hg10 mi
2:50 AM39 °FClear.9 mph75%29.83 "Hg10 mi
2:20 AM37 °FPassing clouds.8 mph81%29.86 "HgN/A
1:50 AM37 °FClear.9 mph75%29.89 "Hg10 mi
1:20 AM37 °FClear.8 mph75%29.89 "Hg10 mi
12:50 AM37 °FClear.7 mph75%29.89 "Hg10 mi
12:20 AM36 °FClear.7 mph75%29.92 "Hg10 mi
11:50 PM
Sat, Feb 28
36 °FClear.9 mph75%29.92 "Hg10 mi
11:20 PM36 °FClear.8 mph75%29.95 "Hg10 mi
10:50 PM36 °FClear.8 mph75%29.95 "Hg10 mi
10:20 PM36 °FClear.7 mph75%29.98 "Hg10 mi
9:50 PM36 °FClear.7 mph70%29.98 "Hg10 mi
9:20 PM37 °FClear.8 mph65%30.01 "Hg10 mi
8:50 PM36 °FClear.7 mph75%30.01 "Hg10 mi
8:20 PM36 °FClear.6 mph75%30.01 "Hg10 mi
7:50 PM34 °FPassing clouds.3 mph87%30.01 "HgN/A
7:20 PM36 °FClear.7 mph75%30.04 "Hg10 mi
6:50 PM37 °FClear.5 mph70%30.04 "Hg10 mi
6:20 PM41 °FPassing clouds.7 mph61%30.04 "HgN/A
5:50 PM41 °FPassing clouds.5 mph61%30.04 "HgN/A
5:20 PM43 °FPassing clouds.8 mph57%30.04 "HgN/A
4:50 PM45 °FPassing clouds.8 mph53%30.07 "HgN/A
4:20 PM45 °FPassing clouds.9 mph57%30.07 "HgN/A
3:50 PM45 °FPassing clouds.8 mph53%30.07 "HgN/A
3:20 PM45 °FScattered clouds.9 mph53%30.09 "HgN/A
2:50 PM45 °FBroken clouds.10 mph57%30.09 "HgN/A
2:20 PM45 °FBroken clouds.9 mph61%30.09 "HgN/A
Weather by CustomWeather, © 2015

See weather overviewHow to use our weather pages